STARLINK-34148, 64111

Orbit data source: Space-Track

STARLINK-34148, 64111 is a payload satellite owned by SpaceX/Seattle (US) in LEO that was launched on Fri, 23 May 2025 UTC via an FALCON 9 launch vehicle from the Air Force Western Test Range (AFWTR). Payload-class satellites include a variety of spacecraft equipped with specific instruments for various scientific and technological missions. These include communications satellites like Starlink; space stations such as the ISS; scientific satellites like the Hubble; Earth observation satellites from companies like Planet Labs, Umbra, and HawkEye 360; GPS; miniature CubeSats for education and research; and military/defense satellites.

Loading next visibility...
Identifier
64111, 2025-110R
Orbit
LEO
Country
Flag of USUS
Related business
Manufacturer
SpaceX/Seattle
Mission
Operational Commercial Communications
Bus & Motor
STARLINK V2MO, Unknown motor
Mass
575 kg wet, ~530 kg dry
Launch date (UTC)
2025-05-23 (1 year ago)
Launch vehicle
FALCON 9
Launch site
Air Force Western Test Range (AFWTR)
Object type
Payload
Rocket body
Debris
Shape & HBR
Box + 2 Pan, 17.7 m
Radar Cross Section
36.964 m², Large (>1 m²)

Expand to show TLE details & history
Last TLE update: 10 hours ago

TLE from 10 hours ago
0 STARLINK-34148
1 64111U 25110R   26171.44138109  .00019839  00000-0  64910-3 0  9992
2 64111  53.1563 268.8232 0001041 113.2999 246.8111 15.31712504 61626
Epoch: 2026-06-20T10:35Z
TLE epoch observation values (Epoch: 2026-06-20T10:35:35.326Z)
Latitude
-0.00009°
Longitude
-158.73001°
Altitude
471.883 km
Speed
7.631 km/s
True Right ascension
17h 55m 17s
True Declination
0° 00' 00"
Sunlit
Object was in full shadow at epoch
Visualization orbit readout
Latitude
Unknown
Longitude
Unknown
Altitude
Unknown
Speed
Unknown
Apparent Right ascension
Unknown
Apparent Declination
Unknown
Sunlit
N/A
Visualization observer readout
Local Sidereal Time
07:13:52
Azimuth
Unknown
Elevation
Unknown
Doppler factor
Unknown
Orbital elements
Apogee altitude
471.673 km
Perigee altitude
470.247 km
Semi-major axis
6,849.097 km
Eccentricity
0.0001
Inclination
53.1563°
RAAN
268.8232°
Arg. of periapsis
113.2999°
True anomaly
246.80014°
Mean anomaly
246.8111°
Eccentric anomaly
246.80562°
Mean motion
3.82907 °/min
Orbital period
94.02 mins
BSTAR
0.0006491
Loading maneuver chart data...
Computing Atmospheric mass density...
Loading historical data...
Loading historical data...
Loading historical data...
Loading historical data...
Loading historical data...
Loading historical data...
Loading historical data...

Documentation

Showing up to 5 results
|